CAPE
0 0 0 1 6 15 7 3 2 0 0 0 0 30 16 273 56 14 638 493 254 203 3 16 94 206 420 19 10 5 42 50 366 1044 724 303 444 1309 3832 4061 3346 3093 3584 3046 2596 2413 2207 1896 1841 2302 2091 1941 2107 1378 702 1725 774 1037 844 1119 965 737 1156 1226 988 929 1009 904 953 1057 883 952 775 673 617 463 602 718 755 605 441 292 186 200 423 510 428
5 0 0 0 0 1 11 11 3 2 0 2 0 0 0 6 269 218 1310 460 176 0 2 1 8 92 6 76 0 55 84 34 543 510 266 28 358 798 2826 2980 3503 3907 2964 3281 3432 2557 2231 2077 2376 2323 2113 2105 1724 1000 1298 633 1149 1023 942 1074 1153 1136 1233 1263 1310 1035 1118 1002 1038 1006 987 902 891 775 623 815 567 670 787 733 733 705 823 775 274 222 417
5 0 1 3 0 0 0 4 12 9 8 3 2 0 0 1 2 1 6 1082 518 46 240 202 74 859 288 85 6 0 322 124 5 36 42 143 238 322 1244 3693 3417 2897 2619 2505 3120 3370 2668 2419 2732 2525 2422 1858 1273 779 723 596 457 467 655 1579 1520 1596 1574 1580 1451 1325 1327 1270 1200 1207 1150 906 858 864 946 939 1027 1082 1186 1158 1070 867 754 777 192 99 192
3 1 1 0 0 0 0 1 6 8 4 5 4 6 2 4 108 188 121 268 226 126 203 26 13 216 221 21 124 262 335 56 200 411 253 164 174 542 1491 1620 3061 3189 2878 3236 3286 2996 2646 2602 2855 2613 2191 1627 1039 917 784 601 507 620 754 1647 1584 1834 1776 1656 1644 1470 1332 1379 1322 1387 1310 1276 1193 1146 1137 1215 1254 1307 1268 1097 1309 1218 654 582 542 489 296
0 0 0 1 0 3 12 0 0 0 3 7 3 5 8 54 43 224 148 16 94 411 53 77 71 0 88 137 124 150 295 406 255 488 511 588 632 1061 1625 3041 3468 3695 3330 3549 3436 3040 2638 2661 2693 2377 2128 1231 1106 892 710 652 733 656 734 1551 1724 2008 1892 1772 1531 1417 1385 1288 1281 1329 1323 1267 1348 1312 1388 1322 1256 1219 1119 1181 1064 927 856 671 580 628 522
1 0 1 5 0 2 1 8 4 30 5 7 18 16 14 33 149 13 5 271 280 37 14 0 0 0 64 235 439 232 118 201 497 286 237 157 162 434 668 884 1729 3854 3680 3137 3736 3746 2400 2077 1969 1672 1698 1186 1104 993 867 822 876 356 1060 1312 2040 1964 1982 1892 1688 1537 1437 1234 1200 1203 1309 1360 1496 1467 1298 1299 1297 1015 1044 1120 1073 991 656 464 559 713 1158
0 0 0 11 23 0 6 0 0 0 9 1 5 16 18 23 288 66 9 1 39 109 1 106 134 18 82 51 147 58 3 431 281 363 111 632 618 590 687 1124 937 3892 4043 4024 4007 3112 2766 2448 2010 1450 1526 1436 1045 1106 861 539 506 498 1185 1297 1843 1900 1945 2010 1937 1702 1534 1351 1174 1249 1226 1340 1433 1432 1352 1438 1440 1385 1135 1068 894 905 895 816 729 592 1277
0 0 0 10 0 6 2 0 32 34 6 0 2 2 37 21 2 342 23 0 1 28 38 17 20 24 23 25 57 460 158 38 5 0 30 176 200 373 775 1478 1922 3887 4544 4446 3271 3176 2954 2678 2073 1624 1611 1557 1294 975 556 508 423 604 1544 1808 1776 1745 1852 2039 2037 1691 1420 1402 1219 1190 1287 1269 1308 1347 1529 1811 1940 2005 1591 1139 835 610 600 676 694 472 940
0 0 0 4 1191 431 45 14 53 19 88 96 32 9 57 117 79 0 1 0 0 35 33 44 24 64 0 6 93 46 0 47 0 5 18 18 80 212 1462 975 1682 3907 4602 4364 3457 3140 3132 2782 2540 1776 1794 1595 1413 1192 780 494 270 848 1505 1821 1716 1668 1662 1850 1832 1661 1203 1218 1278 1180 1283 1182 1230 1260 1481 1619 1560 1990 1479 1108 822 552 500 513 552 569 474
87 0 5 22 80 100 1 87 112 80 42 46 63 110 18 156 33 7 23 123 294 96 26 22 26 27 0 45 43 114 3 0 10 88 159 81 157 318 672 1980 2097 4357 4432 4694 3845 3281 3051 2779 2473 1713 1537 1068 1238 1149 1053 412 437 1141 1217 1303 1436 1640 1647 1604 1688 1613 1369 1269 1371 1343 1266 1169 1190 1301 988 1277 1590 1776 1250 1049 638 369 259 378 620 685 688
10 7 14 40 2 60 36 156 59 8 13 77 43 67 9 18 8 42 53 49 149 6 16 2 213 63 1 20 43 117 48 42 43 107 200 115 52 477 1125 1736 2240 2957 4423 4655 4418 4151 3324 2769 1997 1348 1061 767 1581 1630 865 654 984 1096 1414 1553 1596 1790 1848 1830 1935 1705 1511 1327 1197 1220 1333 1172 1008 1003 1122 1120 1214 1246 820 778 797 909 527 320 488 602 358
54 43 2 3 0 3 164 14 91 15 78 72 41 12 13 198 96 6 54 29 44 0 125 28 124 4 21 67 88 0 0 0 0 58 739 463 419 1163 1710 1891 2917 4566 4629 5206 4003 3350 2950 2428 2108 1307 954 882 1264 984 882 792 831 1302 1532 1748 1959 1931 1847 1910 2036 1792 1328 1544 1305 1212 1272 1418 1333 1412 1354 916 650 320 530 650 770 786 646 244 276 234 79
36 18 17 14 94 41 380 17 4 0 11 125 212 44 716 364 531 114 0 28 22 148 72 0 0 18 85 62 233 52 0 1 0 47 220 321 318 331 475 1557 2815 4171 4474 4786 3658 3034 2632 2294 1801 1186 922 964 526 620 1160 1314 1435 1659 2131 2175 2099 1954 2084 1914 1880 1727 1485 1500 1387 1159 1270 1372 1095 908 1011 782 647 662 586 625 762 651 690 743 482 624 592
62 120 37 17 26 952 35 30 64 35 14 20 8 644 425 660 336 44 0 18 10 70 118 2 0 18 0 0 0 5 0 1 104 40 177 177 242 124 367 3139 3629 3902 3668 4262 3190 2559 1774 1706 1604 1323 1186 580 704 1658 1991 1905 2044 2267 2756 2867 2526 2399 2035 1908 1808 1632 1404 1537 1446 1522 1616 1158 1239 1723 1385 1316 1012 1250 932 940 1227 1147 1123 1118 1065 530 343
6 45 179 1 31 1475 46 64 19 519 662 1663 512 388 298 1 36 7 77 4 218 7 121 25 190 279 28 40 86 52 53 466 1119 875 369 524 438 566 3189 3728 3783 3484 2802 2435 2245 1397 1356 1490 1120 924 806 1365 1980 2455 2303 2941 2900 2800 3396 2973 3219 2803 2346 2124 1732 1645 1674 1640 1501 1237 1124 1030 899 943 1458 832 701 797 1281 1320 1235 1082 1055 1223 1402 953 422
332 32 29 99 140 133 234 469 478 383 740 787 838 414 375 207 80 172 134 125 114 124 436 347 200 266 206 383 402 446 275 316 790 989 1635 1937 1896 1982 2674 2493 2755 2808 2533 1376 1210 1404 1167 1370 1056 719 1107 2457 2507 2490 1798 3425 2793 2050 2002 2286 2299 2738 2511 2122 2042 1666 1908 1624 1746 1979 1661 1232 1141 1416 1437 613 495 600 1373 1648 1474 1312 1284 1076 1303 810 598
597 578 509 559 373 232 166 266 276 593 266 322 259 264 193 346 549 616 122 589 248 177 691 487 538 285 264 347 199 207 217 89 602 783 1170 1768 1714 1705 2034 2210 2702 2035 1933 1355 1455 929 1263 2345 3179 3658 2917 2509 2725 3360 3151 3204 2295 2208 2088 2039 1580 1433 1233 1399 2047 1866 1984 1763 1422 1390 1370 1295 1202 1027 736 1018 1484 1149 1117 1150 1335 1479 1330 859 860 950 745
166 435 557 349 420 462 340 83 128 80 127 89 242 310 474 530 692 318 303 305 369 462 632 385 585 562 539 393 231 156 175 357 1054 2099 2182 2000 2025 1426 1232 2029 1826 1458 1653 1570 1666 2552 1910 2125 3355 3151 3236 3387 3497 3110 2954 2635 2480 2175 1986 1743 1383 1326 1547 1865 1889 1563 958 834 1040 976 1155 1139 884 1066 546 855 1163 1244 1014 934 1069 1392 1444 1170 904 803 787
215 347 926 310 228 216 223 35 3 0 11 79 181 356 454 122 125 112 41 112 271 274 491 400 511 141 23 70 152 626 1010 2202 2110 1826 1860 1826 1428 1217 664 750 1267 1773 1252 1269 1541 1795 2493 2117 1668 1052 930 1509 2520 2708 2480 2482 1958 2245 1672 1331 1077 1278 1364 1496 1316 955 769 719 821 1209 735 664 782 688 1343 1425 1343 1195 1193 841 740 846 733 734 840 435 538
211 508 678 101 25 354 152 20 4 0 28 50 51 106 157 292 219 317 299 171 166 94 58 430 644 280 69 628 1564 2114 1820 1916 2044 1789 2033 1996 2106 2546 1812 1650 1632 1461 1745 1799 1968 1959 2139 1564 1222 808 709 757 1196 1457 1076 1103 1668 1843 1667 1475 1252 1004 815 735 811 771 1080 574 584 529 345 276 308 378 586 384 482 591 446 499 527 458 461 538 566 176 438
42 453 821 587 23 62 17 6 8 0 4 66 102 35 56 46 84 98 106 174 134 61 125 693 1043 1702 1528 1473 1780 1893 1954 1626 1719 1696 1572 1625 1168 1384 1434 1384 1313 1403 1707 1783 2170 2253 2280 1944 1600 1467 1112 513 210 895 1419 1280 1463 2079 2073 1898 1481 1356 1158 1190 1035 1394 879 930 736 620 931 1063 525 306 17 54 308 0 0 0 0 3 62 45 24 1 19
535 500 526 540 186 344 68 1 0 66 140 243 165 46 6 2 20 78 16 154 418 514 690 809 1774 1632 1876 1380 1039 1280 1782 1884 1392 1346 1236 1166 1334 1836 1769 2064 2162 1612 1615 2221 2517 2276 1906 1878 1638 1541 1180 970 248 58 672 899 1078 2160 1916 1303 1016 633 736 554 880 669 477 312 318 529 592 880 350 0 0 0 0 77 0 0 0 0 0 0 0 0 0
103 10 163 163 414 431 48 0 5 40 154 200 82 11 0 0 0 0 15 76 396 706 951 888 1322 2175 1555 1409 1443 1544 1812 2407 2469 2252 1903 1616 1608 1841 1722 1945 2072 2357 2552 2402 2228 2024 1860 1744 1361 1101 958 542 676 607 1216 1257 989 1388 1158 1389 1093 477 433 266 204 570 356 351 423 1301 1013 526 384 410 0 0 0 0 0 0 0 0 0 0 0 0 0
0 0 0 0 65 220 82 12 0 0 112 84 11 0 0 0 0 0 0 0 82 360 702 798 1426 1300 1755 1164 1095 1356 1716 1767 2240 1909 1457 1361 1046 895 1266 1778 2132 2493 2261 1890 1626 1451 1664 1421 1023 997 360 632 997 544 1120 860 1047 1601 1221 1446 1358 856 532 691 1457 1284 628 952 949 746 789 581 866 693 498 368 346 314 209 0 0 0 0 0 0 0 0
0 0 0 0 78 53 6 0 0 0 0 0 0 0 0 0 0 0 0 34 0 1 174 286 604 1328 1296 845 1266 1332 1549 1484 1652 1538 1299 902 613 378 332 1506 1841 2174 2172 1947 1747 1437 1372 1456 979 747 875 538 577 533 380 470 791 902 1176 1092 866 738 877 1167 1128 1307 882 1255 758 551 572 730 576 773 850 700 432 387 269 0 0 0 0 0 0 0 0
0 0 0 0 0 0 0 0 0 0 0 0 0 0 0 6 3 2 0 22 0 3 1 23 110 736 673 816 897 1173 2086 1478 1452 1235 1012 769 319 248 236 1369 1415 1883 1871 1772 1442 1214 834 1119 1002 475 361 482 884 614 341 638 669 655 756 926 1045 1227 922 716 1210 1279 936 892 789 877 998 1292 1148 1006 752 734 487 397 240 1 0 0 0 0 0 0 0
0 0 0 0 0 0 0 0 0 0 0 0 0 0 0 0 0 0 0 0 0 0 0 0 129 509 464 517 513 911 1736 1820 1552 1200 1438 903 233 338 598 1159 951 1355 1312 1180 1367 1353 975 712 394 514 490 578 793 676 344 315 641 591 687 847 886 895 641 487 305 406 296 658 536 1063 712 943 1064 726 674 986 856 546 250 134 29 0 0 0 0 0 0
0 0 0 0 0 0 0 0 0 0 0 0 0 0 0 0 0 0 0 0 0 0 0 1 20 477 1153 799 352 589 912 1154 1186 906 1033 556 161 15 428 968 894 1304 1064 1254 1136 869 591 644 469 590 751 904 844 495 303 643 769 665 598 684 606 488 328 417 479 718 484 929 1056 1018 1022 1052 898 724 525 527 365 459 348 351 220 82 3 1 0 0 0
0 0 0 0 0 0 0 0 0 0 0 0 0 0 0 0 0 0 0 0 0 0 0 0 46 325 299 425 572 603 1036 854 796 1066 959 1012 508 10 883 1081 1163 998 1349 1112 570 1031 908 908 657 891 1294 1128 782 482 425 542 773 646 655 547 498 449 897 1043 1189 1008 1201 1154 1213 1103 747 659 634 677 417 246 238 340 313 192 188 219 60 1 0 0 0
0 0 0 0 0 0 0 0 0 0 0 0 0 0 0 0 0 0 0 0 0 0 0 89 655 819 810 226 1030 863 1154 1326 1548 1645 936 447 339 562 909 1108 873 1260 1303 1212 1091 961 996 999 877 1046 1403 909 549 582 444 648 686 748 754 749 879 986 1055 1097 713 1214 970 932 656 796 660 511 680 569 305 202 120 194 66 20 26 12 38 9 0 1 1
0 0 0 0 0 0 0 0 0 0 0 0 0 0 0 0 0 0 0 0 0 0 5 66 390 1445 742 485 694 631 844 1010 1235 973 827 1134 1460 1168 753 808 813 1286 1294 1244 1247 1028 1288 1164 960 1113 1118 604 351 354 476 515 607 660 842 901 670 481 476 464 665 1116 1252 669 604 662 604 528 422 305 104 15 26 7 7 0 0 0 0 0 0 0 0
0 0 0 0 0 0 0 0 0 0 0 0 0 0 0 0 0 0 0 0 0 0 0 5 151 633 1472 1210 1222 1443 1368 1044 1118 1882 1276 860 584 324 593 456 907 1136 1057 1490 1281 1294 1268 1163 1176 1296 974 945 553 396 300 372 634 861 943 989 1054 903 531 311 515 572 694 1028 577 560 723 540 314 169 12 0 0 0 0 0 0 0 0 0 0 0 0
0 0 0 0 0 0 0 0 0 0 0 0 0 0 0 0 0 0 0 0 0 8 8 78 270 279 1469 1935 1569 1711 1848 1370 1256 1400 1238 1094 1023 1245 841 913 1358 1610 1594 1496 1429 1221 1042 979 932 1024 927 829 615 542 377 382 432 782 721 613 580 597 363 258 240 635 605 493 459 543 410 260 151 67 10 24 0 0 0 0 0 0 0 0 0 0 0
0 0 0 0 0 0 0 0 0 0 0 0 0 0 0 0 0 0 0 0 0 27 42 119 220 372 1661 2338 2096 1936 1839 1719 1467 1100 803 622 656 406 339 936 1394 1439 1307 1215 812 911 876 842 766 794 685 639 440 439 408 432 729 745 620 705 468 455 362 398 353 483 476 427 358 228 156 73 0 0 0 0 0 16 134 2 3 0 0 0 0 0 0
0 0 0 0 0 0 0 0 0 0 0 0 0 0 0 0 0 0 4 4 3 4 105 50 268 640 2364 2032 1895 1718 1399 1284 1094 886 686 645 516 730 854 1136 1172 1103 936 947 914 737 506 390 587 492 561 399 364 306 431 395 466 602 545 486 387 356 372 421 421 378 292 195 192 127 16 15 15 94 118 44 0 0 0 0 0 0 0 0 0 0 0
0 0 0 0 0 0 0 0 0 0 0 0 0 0 0 0 0 0 0 0 0 0 1 63 179 514 1682 1862 1609 1477 1359 1131 1047 1005 1158 1056 1010 727 616 1135 1020 912 757 587 353 322 400 560 544 460 631 305 206 306 413 395 399 381 378 359 305 312 291 261 184 138 104 76 30 49 50 13 4 0 0 0 0 0 0 0 0 0 0 0 0 0 0
0 0 0 0 0 0 0 0 0 0 0 0 0 0 0 0 0 0 0 0 0 2 47 31 170 239 801 1598 1284 1117 1103 1211 948 726 748 752 904 659 564 779 806 666 522 389 383 339 287 150 250 286 408 362 185 374 374 516 308 347 271 249 259 130 102 75 46 23 12 7 1 2 1 0 0 0 0 0 0 0 0 0 3 1 0 0 1 0 0
0 0 0 0 0 0 0 0 0 0 0 0 0 0 10 3 8 3 5 7 20 84 195 99 276 502 718 787 869 1002 1076 1087 1046 765 734 847 661 565 543 838 851 602 477 500 362 254 170 101 41 182 332 303 310 250 226 192 224 227 170 148 149 122 91 144 14 7 1 2 8 7 1 0 2 1 0 0 1 0 0 0 0 0 0 0 0 0 0
0 0 0 0 0 0 0 0 0 0 0 0 0 0 0 1 24 48 54 23 31 140 113 380 343 422 1048 1251 1252 1191 1117 792 716 683 623 461 278 177 559 540 636 524 751 397 234 97 22 34 121 246 232 188 155 24 1 9 1 9 109 114 41 44 23 3 0 6 4 6 8 3 13 1 1 4 1 0 0 0 1 1 0 0 0 0 0 0 0
0 0 0 0 1 2 0 0 0 0 0 1 1 11 34 59 52 76 188 299 258 259 307 412 483 656 1149 1201 918 726 783 617 510 529 460 544 432 405 402 193 237 188 242 29 39 30 31 35 206 68 164 84 35 2 0 0 0 0 4 4 9 8 2 10 8 2 4 10 0 0 0 1 1 0 2 1 2 0 1 0 0 0 0 0 0 0 0
1 4 5 5 5 5 5 7 8 2 0 3 28 74 92 133 203 254 185 295 700 943 843 930 1166 1086 1199 950 768 569 572 420 511 586 468 491 430 432 401 401 308 187 111 21 20 78 76 221 22 2 7 13 0 4 0 0 0 0 1 4 1 1 0 0 0 0 6 2 3 0 1 0 0 0 0 0 0 1 0 0 0 0 0 0 0 0 0
5 7 7 7 8 6 2 0 0 0 7 38 67 90 239 294 257 228 221 550 1050 1132 1304 1354 1228 1089 779 647 435 412 450 483 762 778 570 520 528 402 342 340 149 235 318 313 167 56 5 5 0 3 0 0 0 0 0 0 0 0 0 1 0 0 0 2 2 3 6 6 3 3 5 3 2 0 1 0 2 2 0 0 0 0 0 2 2 1 0
12 11 12 17 15 12 3 4 6 36 75 66 125 371 522 452 373 146 280 329 395 628 734 834 826 754 624 569 486 427 458 499 597 599 629 503 548 550 341 215 110 110 95 16 0 0 1 0 0 0 0 0 0 0 0 0 0 0 0 1 2 1 1 4 10 16 9 9 7 1 1 8 10 7 1 0 0 1 0 1 0 0 0 2 0 0 0
8 8 10 10 9 10 11 32 128 146 104 280 501 590 578 508 271 14 150 347 282 453 458 658 669 665 613 541 495 611 709 621 728 607 635 357 292 308 290 286 173 74 32 3 0 0 0 0 0 0 0 0 0 0 0 0 0 0 0 0 0 1 5 2 0 0 0 0 0 1 0 2 2 0 0 0 1 1 1 4 6 0 0 0 0 0 0
14 10 6 4 11 23 68 128 180 344 247 320 493 516 612 377 163 35 98 173 277 532 501 502 490 494 486 444 463 575 636 637 689 541 366 264 225 219 206 160 187 58 31 20 12 5 0 0 0 0 0 0 0 0 0 0 0 0 0 0 0 0 0 2 6 3 8 6 3 1 2 0 0 6 1 0 13 3 7 0 0 0 2 1 0 0 0
9 28 78 116 70 26 68 190 387 442 166 91 199 469 430 505 276 39 29 291 395 384 590 534 493 515 514 494 505 399 489 458 454 387 454 323 250 229 58 46 3 26 28 18 2 0 0 0 0 0 0 0 0 0 0 0 0 0 0 0 0 0 0 0 0 3 1 2 2 1 6 2 0 0 0 1 0 0 0 0 0 0 0 0 0 0 0
79 76 147 101 273 130 186 306 342 170 66 272 341 626 630 332 336 288 266 333 224 334 472 562 462 810 700 423 438 496 374 339 441 216 149 116 182 69 23 7 0 1 18 15 0 0 0 0 0 0 0 0 0 0 0 0 0 0 0 0 0 0 0 0 0 0 3 1 1 2 2 0 0 2 4 0 0 0 0 0 0 0 0 0 0 0 0
19 49 156 211 412 470 520 423 294 485 484 740 730 318 484 648 677 520 513 540 510 484 775 716 818 546 586 625 478 300 780 521 411 271 19 4 6 2 2 0 0 0 0 0 0 0 0 0 0 0 0 0 0 0 0 0 1 0 0 0 0 0 0 0 0 0 1 0 2 0 0 4 4 1 2 0 0 0 0 0 0 0 0 1 0 0 0
379 388 483 242 87 393 113 229 274 354 120 337 319 778 676 642 666 565 745 596 544 554 644 542 695 625 627 691 421 370 274 474 614 428 92 28 1 0 1 0 0 0 0 0 0 0 0 0 0 0 0 0 0 0 0 0 0 0 0 0 0 0 0 0 0 0 0 2 5 1 1 5 2 3 1 1 0 0 0 0 1 0 0 1 0 0 0
654 881 692 614 508 530 419 174 398 417 782 491 696 599 662 658 689 773 655 547 583 584 621 402 405 743 365 304 611 426 270 273 172 268 67 0 0 0 0 0 0 0 0 0 0 0 0 0 0 0 0 0 0 0 0 0 0 3 0 0 1 0 0 0 0 0 1 2 1 1 2 5 3 3 0 0 2 0 0 0 0 0 0 0 0 0 0
582 557 536 613 481 510 332 329 286 307 490 299 491 462 417 579 606 654 454 280 285 284 489 354 273 360 283 153 255 100 65 121 42 219 106 20 12 4 0 0 0 0 0 1 1 0 0 0 0 0 0 0 0 0 0 0 0 0 0 0 1 0 0 0 0 0 0 0 1 5 8 7 4 6 4 2 1 1 2 1 0 0 0 0 0 0 0
127 309 678 582 523 445 336 128 428 698 607 539 263 269 562 480 147 94 184 328 391 114 49 66 60 98 36 94 98 132 186 134 14 0 7 42 8 2 0 0 0 0 0 0 1 1 0 0 0 0 0 0 0 0 0 0 0 0 2 0 0 0 0 1 3 6 1 4 2 2 2 1 2 2 2 1 1 0 0 0 0 0 0 0 0 0 0
Wind_Speed
nan nan nan nan nan nan nan nan nan nan nan nan nan nan nan 22 nan nan 30 26 24 23 nan nan nan 20 21 nan nan nan nan nan 25 27 28 33 31 29 39 40 43 38 37 40 38 37 38 37 35 35 36 39 40 42 42 41 42 43 42 39 38 36 37 41 45 42 40 38 38 39 40 40 41 41 42 42 45 46 47 45 45 43 43 43 44 43 44
nan nan nan nan nan nan nan nan nan nan nan nan nan nan nan nan 26 24 35 33 28 nan nan nan nan nan nan nan nan nan nan nan 23 22 23 nan 32 38 40 41 42 43 40 38 38 37 37 38 38 38 38 41 44 45 44 44 44 43 41 35 36 36 40 44 46 43 40 39 40 40 40 41 42 42 43 45 46 48 48 47 46 46 45 45 43 44 45
nan nan nan nan nan nan nan nan nan nan nan nan nan nan nan nan nan nan nan 39 36 nan 32 28 nan 41 37 nan nan nan 20 22 nan nan nan 23 26 37 43 45 45 44 42 38 35 37 38 39 40 39 39 43 45 45 45 44 45 42 38 34 36 39 42 46 46 43 41 41 41 42 42 43 43 44 46 46 48 49 49 48 48 47 47 46 45 nan 45
nan nan nan nan nan nan nan nan nan nan nan nan nan nan nan nan 20 24 30 36 37 33 32 nan nan 33 37 nan 31 25 24 nan 24 23 25 25 23 28 41 45 46 44 43 42 39 40 41 41 43 41 40 42 45 43 44 43 43 41 35 35 41 43 44 46 45 43 43 43 44 44 44 45 45 46 47 48 50 50 49 48 48 48 47 47 48 48 47
nan nan nan nan nan nan nan nan nan nan nan nan nan nan nan nan nan 35 36 nan nan 38 nan nan nan nan nan 34 29 28 29 32 31 28 27 26 27 28 31 36 44 45 42 42 41 41 39 40 44 43 40 39 41 42 42 44 42 40 32 39 44 45 44 45 44 43 44 45 45 45 46 46 47 47 49 50 50 49 48 48 47 45 46 49 49 48 46
nan nan nan nan nan nan nan nan nan nan nan nan nan nan nan nan 34 nan nan 46 49 nan nan nan nan nan nan 31 32 31 29 32 33 31 28 26 25 24 27 29 33 42 39 39 39 42 39 32 32 35 33 38 41 42 45 45 46 29 31 39 45 46 45 44 44 44 45 45 46 47 47 48 48 49 50 50 50 49 47 47 45 45 47 48 49 48 48
nan nan nan nan nan nan nan nan nan nan nan nan nan nan nan nan 36 nan nan nan nan 43 nan 37 39 nan nan nan 26 nan nan 35 36 34 31 29 27 26 25 26 24 35 36 38 40 42 37 34 37 37 36 41 45 44 44 45 37 26 34 40 41 45 46 46 45 45 46 46 47 48 48 48 49 50 51 51 50 49 48 46 44 44 46 47 47 47 50
nan nan nan nan nan nan nan nan nan nan nan nan nan nan nan nan nan 39 nan nan nan nan nan nan nan nan nan nan nan 28 29 nan nan nan nan 29 25 23 23 22 22 28 34 36 38 37 35 37 40 40 42 46 49 49 45 40 29 30 39 43 45 46 46 46 46 46 46 46 47 48 49 49 50 50 51 51 51 49 45 43 43 43 43 45 46 46 48
nan nan nan nan 35 31 nan nan nan nan nan nan nan nan nan 42 nan nan nan nan nan nan nan nan nan nan nan nan nan nan nan nan nan nan nan nan nan 22 26 23 21 24 31 34 36 36 38 40 40 43 46 49 51 46 41 33 29 35 43 44 46 47 46 47 47 47 47 47 48 49 50 50 50 50 50 52 51 52 46 42 41 41 42 43 44 45 44
nan nan nan nan nan 24 nan nan 31 nan nan nan nan 31 nan 35 nan nan nan 38 39 nan nan nan nan nan nan nan nan 28 nan nan nan nan 26 nan 25 25 25 28 24 27 29 34 40 38 41 41 42 49 49 50 45 44 37 30 30 38 41 42 44 45 45 47 47 48 49 48 49 50 50 51 51 51 50 51 52 54 47 40 39 41 42 43 44 45 44
nan nan nan nan nan nan nan 25 nan nan nan nan nan nan nan nan nan nan nan nan 44 nan nan nan 37 nan nan nan nan 36 nan nan nan 34 29 26 nan 33 30 29 28 28 30 32 40 39 42 42 46 49 46 44 42 37 30 28 34 39 39 40 44 44 45 46 47 47 48 49 49 50 50 51 51 49 50 51 52 52 45 40 40 41 41 40 41 43 42
nan nan nan nan nan nan 26 nan nan nan nan nan nan nan nan 40 nan nan nan nan nan nan 39 nan 32 nan nan nan nan nan nan nan nan nan 38 30 32 37 31 30 31 35 33 39 42 41 43 46 58 51 43 39 35 30 27 29 35 38 40 42 46 45 45 46 47 47 48 50 49 49 50 52 50 50 50 50 49 45 40 39 40 40 39 39 38 38 nan
nan nan nan nan nan nan 41 nan nan nan nan 21 24 nan 34 32 28 33 nan nan nan 40 nan nan nan nan nan nan 25 nan nan nan nan nan 39 33 33 34 34 32 35 34 35 40 43 41 43 51 51 47 44 40 31 27 30 33 33 37 42 46 48 47 46 47 48 48 48 48 48 48 49 50 51 51 51 51 49 44 38 37 39 36 35 36 36 38 37
nan 30 nan nan nan 46 nan nan nan nan nan nan nan 36 30 35 39 nan nan nan nan nan 32 nan nan nan nan nan nan nan nan nan 24 nan 38 34 35 38 35 43 41 36 38 43 47 48 50 49 44 39 36 32 27 29 35 33 33 38 43 46 47 46 45 46 48 47 45 46 47 49 52 52 51 49 49 49 47 41 39 39 39 35 33 35 37 39 37
nan nan 30 nan nan 48 nan nan nan 44 35 37 37 39 40 nan nan nan nan nan 38 nan 33 nan 32 28 nan nan nan nan nan 36 41 34 37 36 41 38 45 45 42 41 43 35 38 46 45 41 40 35 29 25 30 33 33 34 36 39 40 43 45 44 44 44 44 44 44 46 49 52 53 52 51 48 48 48 41 31 38 43 41 37 34 35 39 44 41
32 nan nan nan 46 44 51 50 43 47 47 37 42 39 45 39 nan 43 42 43 40 40 38 35 32 28 28 29 30 28 26 37 42 41 41 43 45 51 47 47 45 48 40 42 30 35 40 38 35 34 30 32 33 33 35 39 42 43 43 42 42 40 41 43 43 42 46 52 52 53 54 54 53 51 50 50 47 40 41 44 42 38 37 37 40 43 40
40 41 43 45 44 44 47 47 48 46 47 48 47 50 49 44 45 43 38 41 41 40 38 36 33 31 30 31 31 28 25 nan 42 43 42 46 47 52 47 48 43 44 40 43 41 42 35 38 36 33 31 35 38 38 38 41 44 45 45 44 42 41 39 38 39 42 48 53 55 54 55 56 55 50 48 49 48 47 44 43 41 42 42 41 41 42 40
38 39 41 45 46 43 45 nan 43 nan 52 nan 54 54 52 48 45 39 39 40 39 39 40 36 35 33 32 32 31 28 26 30 42 50 51 48 47 50 49 42 38 40 43 44 43 43 42 35 37 39 38 39 42 38 39 41 42 44 44 44 44 43 40 37 44 52 54 51 52 58 57 55 54 50 46 49 49 47 45 43 42 42 43 44 43 38 40
39 40 33 43 45 42 51 nan nan nan nan nan 46 44 43 44 42 42 nan 40 39 36 35 34 34 30 nan nan 31 31 34 46 52 52 54 48 45 46 48 36 33 34 43 45 46 42 43 42 40 43 43 39 38 40 42 44 43 42 44 45 47 46 45 42 45 52 61 57 57 59 58 55 51 52 51 50 48 45 44 42 41 40 39 40 40 38 38
40 44 41 38 nan 51 52 nan nan nan nan nan nan 41 40 41 41 42 42 42 36 nan nan 36 36 34 nan 38 47 50 52 50 49 50 53 48 44 41 45 33 37 39 44 47 43 42 44 44 43 44 38 33 33 39 43 48 48 50 50 51 51 49 49 50 52 57 60 63 61 59 58 54 54 53 47 46 46 47 46 44 43 41 40 39 38 37 36
nan 42 50 46 nan nan nan nan nan nan nan nan 46 nan nan nan nan nan 39 41 39 nan 37 42 43 42 43 56 51 52 51 50 48 49 51 49 38 31 43 37 45 46 45 44 43 45 46 45 44 41 38 36 41 44 49 49 50 50 52 54 56 54 55 54 58 59 61 59 59 57 58 59 58 53 nan nan 48 nan nan nan nan nan nan nan nan nan nan
40 37 41 43 43 46 nan nan nan nan 43 38 40 nan nan nan nan nan nan 42 41 39 43 42 46 48 48 48 46 52 50 50 49 46 48 49 44 41 45 48 51 54 47 46 47 49 47 48 45 41 41 42 42 nan 53 54 53 54 52 53 54 54 56 57 58 58 57 56 57 59 58 57 59 nan nan nan nan nan nan nan nan nan nan nan nan nan nan
34 nan 40 39 42 44 nan nan nan nan 39 38 nan nan nan nan nan nan nan nan 41 41 43 46 45 48 52 49 47 50 49 46 49 49 48 48 46 48 51 52 52 51 53 52 50 49 48 46 45 43 43 47 47 52 53 52 53 54 55 55 55 53 55 53 55 60 58 56 58 57 55 51 55 57 nan nan nan nan nan nan nan nan nan nan nan nan nan
nan nan nan nan nan 39 nan nan nan nan 43 nan nan nan nan nan nan nan nan nan nan 41 41 43 45 43 46 51 48 49 51 50 51 49 50 50 51 51 48 48 49 49 48 50 50 50 48 47 44 43 48 52 49 53 55 54 54 57 56 56 53 51 51 57 59 55 53 54 55 55 52 52 51 52 52 50 48 46 48 nan nan nan nan nan nan nan nan
nan nan nan nan nan nan nan nan nan nan nan nan nan nan nan nan nan nan nan nan nan nan 39 40 42 43 42 44 47 47 50 51 50 49 49 48 48 47 46 50 50 48 48 49 51 51 50 47 45 46 51 51 50 53 53 53 54 54 54 51 50 51 55 56 55 52 50 54 53 50 48 49 49 47 45 49 49 47 45 nan nan nan nan nan nan nan nan
nan nan nan nan nan nan nan nan nan nan nan nan nan nan nan nan nan nan nan nan nan nan nan nan 39 45 47 45 49 49 48 47 46 45 43 44 45 45 45 52 52 51 51 51 51 50 48 47 48 51 51 52 54 53 53 53 52 51 50 51 51 51 50 53 54 53 51 51 48 50 49 47 44 44 43 40 47 49 46 nan nan nan nan nan nan nan nan
nan nan nan nan nan nan nan nan nan nan nan nan nan nan nan nan nan nan nan nan nan nan nan nan 44 42 44 46 44 47 45 42 42 45 45 45 45 45 49 52 53 52 53 51 49 48 48 49 50 51 49 52 52 51 49 50 52 51 52 51 50 48 51 50 47 46 48 47 48 46 46 47 45 42 40 43 43 43 43 44 nan nan nan nan nan nan nan
nan nan nan nan nan nan nan nan nan nan nan nan nan nan nan nan nan nan nan nan nan nan nan nan nan 44 42 44 46 48 48 48 45 43 42 39 39 nan 47 54 54 52 52 51 47 47 48 48 49 48 48 50 50 47 48 51 50 51 49 48 46 46 46 49 48 46 46 50 51 48 46 43 43 42 42 39 40 43 42 42 43 nan nan nan nan nan nan
nan nan nan nan nan nan nan nan nan nan nan nan nan nan nan nan nan nan nan nan nan nan nan nan nan 42 40 41 45 46 47 47 43 38 37 40 40 nan 55 57 53 50 51 48 46 46 46 47 46 48 49 48 47 46 48 49 49 48 49 47 46 46 47 48 48 47 49 49 46 44 46 44 42 42 40 40 40 41 42 42 42 42 nan nan nan nan nan
nan nan nan nan nan nan nan nan nan nan nan nan nan nan nan nan nan nan nan nan nan nan nan nan 46 43 41 40 49 47 45 43 42 41 42 42 42 47 61 59 56 50 49 46 45 44 44 45 45 47 47 46 45 48 46 47 47 49 49 47 49 49 46 46 48 50 48 43 41 43 42 41 41 39 39 40 39 40 nan nan nan nan nan nan nan nan nan
nan nan nan nan nan nan nan nan nan nan nan nan nan nan nan nan nan nan nan nan nan nan nan nan 39 44 43 40 44 45 42 41 42 43 43 47 53 54 52 43 47 48 44 43 44 45 44 43 43 44 45 43 44 46 47 47 47 47 49 49 50 48 47 44 48 47 43 40 41 39 39 40 39 39 40 nan nan nan nan nan nan nan nan nan nan nan nan
nan nan nan nan nan nan nan nan nan nan nan nan nan nan nan nan nan nan nan nan nan nan nan nan 37 37 42 44 46 45 44 46 48 50 52 54 53 42 41 40 45 48 45 47 48 47 44 41 44 45 44 43 43 44 45 46 44 46 47 48 47 46 46 43 45 45 42 38 37 39 41 39 39 39 nan nan nan nan nan nan nan nan nan nan nan nan nan
nan nan nan nan nan nan nan nan nan nan nan nan nan nan nan nan nan nan nan nan nan nan nan nan 37 33 42 45 46 49 50 49 49 50 50 50 47 42 43 42 50 51 50 51 50 47 43 43 44 46 46 45 45 48 47 46 44 46 47 49 48 48 47 48 43 39 40 38 38 38 40 40 40 nan nan nan nan nan nan nan nan nan nan nan nan nan nan
nan nan nan nan nan nan nan nan nan nan nan nan nan nan nan nan nan nan nan nan nan nan nan 37 38 39 45 49 48 45 47 49 49 49 50 50 48 42 34 43 53 51 53 52 49 45 46 46 48 46 47 46 47 47 50 49 50 49 49 52 51 48 46 45 42 38 38 40 42 42 42 nan nan nan nan nan nan nan 35 nan nan nan nan nan nan nan nan
nan nan nan nan nan nan nan nan nan nan nan nan nan nan nan nan nan nan nan nan nan nan 35 nan 35 42 51 48 45 44 44 47 48 49 49 49 48 46 42 48 55 56 54 53 51 50 48 48 47 47 47 44 46 46 51 49 48 49 52 52 52 48 47 45 42 42 41 40 40 41 nan nan nan nan 38 nan nan nan nan nan nan nan nan nan nan nan nan
nan nan nan nan nan nan nan nan nan nan nan nan nan nan nan nan nan nan nan nan nan nan nan nan 40 44 47 49 47 46 46 47 48 48 50 50 49 47 44 51 53 55 55 54 51 51 50 50 51 48 44 46 47 50 49 48 49 49 50 51 50 48 47 44 43 41 40 nan nan nan nan nan nan nan nan nan nan nan nan nan nan nan nan nan nan nan nan
nan nan nan nan nan nan nan nan nan nan nan nan nan nan nan nan nan nan nan nan nan nan nan nan 38 38 43 47 46 48 49 48 47 47 47 47 48 47 49 53 52 53 54 54 54 54 53 53 52 46 45 48 49 53 50 47 46 48 48 49 48 46 45 nan nan nan nan nan nan nan nan nan nan nan nan nan nan nan nan nan nan nan nan nan nan nan nan
nan nan nan nan nan nan nan nan nan nan nan nan nan nan nan nan nan nan nan nan nan nan 40 nan 40 41 44 44 45 50 50 48 48 47 46 46 49 49 48 49 48 49 51 53 55 53 52 51 nan 48 45 50 51 50 54 51 47 47 47 46 45 43 nan 38 nan nan nan nan nan nan nan nan nan nan nan nan nan nan nan nan nan nan nan nan nan nan nan
nan nan nan nan nan nan nan nan nan nan nan nan nan nan nan nan nan nan nan nan nan 40 42 43 41 41 46 46 46 49 50 51 51 50 51 52 51 49 50 47 46 49 53 55 55 nan nan nan 45 46 49 51 51 nan nan nan nan nan 47 45 nan nan nan nan nan nan nan nan nan nan nan nan nan nan nan nan nan nan nan nan nan nan nan nan nan nan nan
nan nan nan nan nan nan nan nan nan nan nan nan nan nan nan nan nan nan 35 36 39 45 44 44 43 45 47 46 47 48 48 47 48 47 49 48 48 49 52 54 54 55 54 nan nan nan nan nan 46 nan 48 nan nan nan nan nan nan nan nan nan nan nan nan nan nan nan nan nan nan nan nan nan nan nan nan nan nan nan nan nan nan nan nan nan nan nan nan
nan nan nan nan nan nan nan nan nan nan nan nan nan nan nan 34 34 31 31 35 44 50 47 46 45 45 45 43 44 43 44 46 47 49 50 49 49 49 49 51 52 52 51 nan nan nan nan 43 nan nan nan nan nan nan nan nan nan nan nan nan nan nan nan nan nan nan nan nan nan nan nan nan nan nan nan nan nan nan nan nan nan nan nan nan nan nan nan
nan nan nan nan nan nan nan nan nan nan nan nan nan nan 40 40 38 39 34 34 45 51 48 46 45 45 46 47 48 47 47 46 46 46 46 45 46 46 46 48 47 50 55 55 54 nan nan nan nan nan nan nan nan nan nan nan nan nan nan nan nan nan nan nan nan nan nan nan nan nan nan nan nan nan nan nan nan nan nan nan nan nan nan nan nan nan nan
nan nan nan nan nan nan nan nan nan nan nan nan 42 43 41 42 46 47 39 40 39 42 41 41 41 41 40 40 40 39 39 40 40 40 41 40 41 40 43 47 45 45 nan nan nan nan nan nan nan nan nan nan nan nan nan nan nan nan nan nan nan nan nan nan nan nan nan nan nan nan nan nan nan nan nan nan nan nan nan nan nan nan nan nan nan nan nan
nan nan nan nan nan nan nan nan 37 39 39 40 41 41 42 43 42 nan 29 26 31 36 34 33 32 33 32 33 34 36 36 37 38 37 37 38 39 41 43 40 37 nan nan nan nan nan nan nan nan nan nan nan nan nan nan nan nan nan nan nan nan nan nan nan nan nan nan nan nan nan nan nan nan nan nan nan nan nan nan nan nan nan nan nan nan nan nan
nan nan nan nan nan nan nan 19 20 21 23 22 25 30 31 31 30 nan nan 27 25 26 28 26 26 26 27 28 29 31 32 32 32 33 31 32 32 32 32 33 33 nan nan nan nan nan nan nan nan nan nan nan nan nan nan nan nan nan nan nan nan nan nan nan nan nan nan nan nan nan nan nan nan nan nan nan nan nan nan nan nan nan nan nan nan nan nan
nan nan nan 12 nan nan nan 11 12 11 8 nan 12 16 20 22 23 nan nan 20 20 21 23 23 22 23 25 27 28 28 29 29 29 29 28 27 27 30 nan nan nan nan nan nan nan nan nan nan nan nan nan nan nan nan nan nan nan nan nan nan nan nan nan nan nan nan nan nan nan nan nan nan nan nan nan nan nan nan nan nan nan nan nan nan nan nan nan
nan nan 10 9 7 6 6 8 10 9 nan 6 5 11 14 14 18 18 16 16 16 17 18 21 23 23 24 24 25 25 26 25 26 26 26 28 31 nan nan nan nan nan nan nan nan nan nan nan nan nan nan nan nan nan nan nan nan nan nan nan nan nan nan nan nan nan nan nan nan nan nan nan nan nan nan nan nan nan nan nan nan nan nan nan nan nan nan
nan nan 9 8 6 5 6 7 6 5 2 8 8 11 12 14 15 15 16 15 16 13 15 18 19 20 17 19 21 22 26 22 23 23 nan nan nan nan nan nan nan nan nan nan nan nan nan nan nan nan nan nan nan nan nan nan nan nan nan nan nan nan nan nan nan nan nan nan nan nan nan nan nan nan nan nan nan nan nan nan nan nan nan nan nan nan nan
6 6 6 5 nan 0 1 2 3 3 4 4 6 9 11 12 13 11 12 13 13 13 13 13 13 15 16 16 20 21 23 26 27 23 nan nan nan nan nan nan nan nan nan nan nan nan nan nan nan nan nan nan nan nan nan nan nan nan nan nan nan nan nan nan nan nan nan nan nan nan nan nan nan nan nan nan nan nan nan nan nan nan nan nan nan nan nan
6 7 7 6 4 2 2 1 1 1 2 1 5 6 7 8 8 8 9 9 8 9 10 10 10 13 15 18 23 21 21 22 24 25 nan nan nan nan nan nan nan nan nan nan nan nan nan nan nan nan nan nan nan nan nan nan nan nan nan nan nan nan nan nan nan nan nan nan nan nan nan nan nan nan nan nan nan nan nan nan nan nan nan nan nan nan nan
7 6 6 6 5 4 3 4 3 2 2 5 7 6 6 6 7 8 8 10 10 9 11 11 13 15 15 16 19 23 nan 23 nan 27 25 nan nan nan nan nan nan nan nan nan nan nan nan nan nan nan nan nan nan nan nan nan nan nan nan nan nan nan nan nan nan nan nan nan nan nan nan nan nan nan nan nan nan nan nan nan nan nan nan nan nan nan nan
8 8 7 6 7 7 6 7 7 7 9 10 10 9 8 9 9 nan 10 12 13 11 nan nan nan nan nan nan nan 21 23 24 nan nan nan nan nan nan nan nan nan nan nan nan nan nan nan nan nan nan nan nan nan nan nan nan nan nan nan nan nan nan nan nan nan nan nan nan nan nan nan nan nan nan nan nan nan nan nan nan nan nan nan nan nan nan nan
Wind_Direction
nan nan nan nan nan nan nan nan nan nan nan nan nan nan nan 240 nan nan 265 280 290 287 nan nan nan 265 265 nan nan nan nan nan 267 282 291 297 296 292 296 299 304 309 308 309 310 310 310 310 315 314 311 308 303 301 302 302 302 301 303 306 305 301 302 307 309 312 315 319 320 320 320 318 318 320 321 322 324 323 320 319 319 320 319 318 317 317 319
nan nan nan nan nan nan nan nan nan nan nan nan nan nan nan nan 251 252 264 268 267 nan nan nan nan nan nan nan nan nan nan nan 281 286 291 nan 299 305 306 310 308 306 310 308 310 311 308 312 312 312 310 307 303 302 302 305 304 302 299 302 302 303 305 307 309 313 317 319 320 319 319 320 320 321 323 324 323 321 320 319 318 319 318 318 321 321 319
nan nan nan nan nan nan nan nan nan nan nan nan nan nan nan nan nan nan nan 269 265 nan 263 261 nan 254 256 nan nan nan 269 266 nan nan nan 289 299 307 310 311 311 312 313 312 310 308 309 308 307 308 307 304 304 305 309 304 302 302 302 306 307 305 304 306 309 314 318 321 322 321 321 322 321 322 324 323 321 320 320 320 320 319 321 323 321 nan 319
nan nan nan nan nan nan nan nan nan nan nan nan nan nan nan nan 254 251 244 254 260 266 277 nan nan 260 264 nan 266 272 277 nan 283 284 290 298 302 297 308 312 310 311 313 311 313 311 308 307 305 303 302 305 304 309 307 302 299 295 298 310 308 301 301 304 310 317 321 323 323 323 322 323 322 322 322 320 320 320 319 321 320 319 320 321 320 321 322
nan nan nan nan nan nan nan nan nan nan nan nan nan nan nan nan nan 255 254 nan nan 242 nan nan nan nan nan 274 281 274 263 264 266 271 277 282 286 291 289 297 308 311 311 308 308 310 312 310 305 298 296 299 309 307 301 296 295 298 311 303 302 301 304 309 315 320 323 323 323 323 322 321 321 320 319 320 319 319 320 321 320 318 321 322 320 319 320
nan nan nan nan nan nan nan nan nan nan nan nan nan nan nan nan 263 nan nan 253 246 nan nan nan nan nan nan 258 263 267 272 274 281 288 292 293 296 299 302 300 298 307 305 305 302 295 296 295 282 264 268 299 305 299 295 298 292 304 303 298 300 305 310 315 320 323 323 323 322 321 320 320 319 318 317 317 318 318 320 320 320 321 322 322 320 320 320
nan nan nan nan nan nan nan nan nan nan nan nan nan nan nan nan 253 nan nan nan nan 256 nan 252 254 nan nan nan 275 nan nan 279 281 284 288 293 295 296 297 294 292 298 307 303 296 304 310 311 304 299 300 302 301 290 283 281 287 306 307 306 307 310 315 319 321 323 323 322 320 319 318 316 315 315 315 316 317 319 323 322 318 318 320 319 317 318 319
nan nan nan nan nan nan nan nan nan nan nan nan nan nan nan nan nan 253 nan nan nan nan nan nan nan nan nan nan nan 279 278 nan nan nan nan 301 306 307 303 297 296 297 309 304 306 312 310 305 309 309 304 300 290 280 278 285 296 305 308 311 314 315 317 319 321 321 320 317 316 315 314 312 313 313 314 315 315 315 318 319 319 319 319 317 318 317 320
nan nan nan nan 245 233 nan nan nan nan nan nan nan nan nan 210 nan nan nan nan nan nan nan nan nan nan nan nan nan nan nan nan nan nan nan nan nan 297 301 304 300 294 303 307 306 303 305 307 311 304 300 289 284 292 303 304 301 307 309 311 312 315 317 318 319 318 316 314 313 312 311 311 311 311 312 314 316 315 319 321 320 320 319 318 317 318 319
nan nan nan nan nan 247 nan nan 229 nan nan nan nan 231 nan 223 nan nan nan 250 261 nan nan nan nan nan nan nan nan 273 nan nan nan nan 291 nan 290 285 287 292 293 293 293 295 302 307 309 309 306 294 292 289 298 306 311 302 304 306 309 311 311 313 315 315 314 314 312 311 310 309 309 310 309 311 313 312 313 316 321 320 320 321 319 317 317 318 321
nan nan nan nan nan nan nan 262 nan nan nan nan nan nan nan nan nan nan nan nan 257 nan nan nan 273 nan nan nan nan 271 nan nan nan 294 297 296 nan 291 288 293 295 296 293 291 300 300 297 297 289 276 284 295 297 302 304 303 304 309 313 312 311 312 311 309 309 307 306 306 307 307 307 308 309 311 314 315 316 317 317 317 319 318 313 314 318 320 325
nan nan nan nan nan nan 254 nan nan nan nan nan nan nan nan 248 nan nan nan nan nan nan 266 nan 273 nan nan nan nan nan nan nan nan nan 285 286 282 286 289 291 292 288 290 288 296 295 295 291 281 291 293 294 293 290 299 308 310 314 314 310 306 306 306 305 303 301 300 303 305 306 307 307 310 312 309 308 310 312 314 314 316 314 314 314 318 319 nan
nan nan nan nan nan nan 243 nan nan nan nan 278 268 nan 243 243 253 255 nan nan nan 264 nan nan nan nan nan nan 291 nan nan nan nan nan 290 290 288 288 293 296 291 291 289 289 291 288 280 277 288 296 296 291 289 297 309 311 311 309 306 303 302 303 303 303 302 301 300 303 305 306 307 308 308 308 309 311 311 311 312 312 310 312 313 315 319 322 315
nan 250 nan nan nan 252 nan nan nan nan nan nan nan 247 251 242 243 nan nan nan nan nan 272 nan nan nan nan nan nan nan nan nan 278 nan 295 296 297 297 298 295 295 290 290 285 284 279 277 281 278 279 287 290 299 310 310 311 305 297 295 296 300 302 302 300 299 299 301 303 308 309 307 305 307 308 308 310 311 310 308 308 309 309 310 314 317 303 299
nan nan 245 nan nan 250 nan nan nan 235 233 241 242 249 250 nan nan nan nan nan 256 nan 260 nan 268 267 nan nan nan nan nan 272 274 277 285 289 292 292 288 289 291 281 268 258 271 283 281 284 288 299 301 300 306 302 302 298 297 293 291 292 295 297 297 296 297 298 299 302 306 309 309 307 305 306 301 299 297 300 307 309 311 312 312 311 306 306 310
235 nan nan nan 240 252 249 243 245 249 253 255 250 251 251 243 nan 249 255 260 256 257 260 262 264 265 264 270 274 270 270 280 290 284 278 279 277 276 281 283 282 276 284 288 285 272 277 283 294 304 311 303 296 293 286 281 282 281 279 282 284 287 292 296 297 299 303 307 309 307 306 306 305 304 304 308 309 310 307 310 311 310 308 307 307 306 307
232 235 240 243 239 244 255 254 251 251 253 254 253 251 254 250 250 251 258 256 257 263 264 266 269 270 272 270 266 265 265 nan 291 287 283 283 283 283 285 284 285 284 289 293 291 288 290 291 296 294 290 286 282 280 281 282 283 285 287 291 291 290 290 292 297 301 302 306 307 306 306 305 304 305 309 311 309 308 309 309 309 309 311 310 305 307 307
242 238 239 244 244 243 243 nan 254 nan 248 nan 247 251 254 257 258 262 258 254 257 260 263 266 268 267 265 268 269 266 266 264 274 280 280 278 278 281 283 284 280 277 286 292 288 277 273 273 281 280 278 276 273 276 280 281 283 284 286 288 288 289 290 299 300 300 303 302 305 306 305 306 307 309 307 305 306 307 308 310 310 310 308 306 305 305 306
241 244 238 244 248 246 247 nan nan nan nan nan 253 254 255 254 254 254 nan 260 261 262 265 271 271 269 nan nan 271 274 270 271 277 277 275 277 278 281 283 278 265 272 292 288 280 284 288 286 277 274 272 269 269 277 287 289 289 289 288 289 289 289 294 299 302 304 304 312 311 307 305 305 308 309 308 308 306 309 309 305 302 302 302 302 303 303 304
243 243 256 256 nan 252 249 nan nan nan nan nan nan 252 251 251 251 252 252 255 259 nan nan 265 268 268 nan 270 273 277 280 279 275 276 274 276 282 283 277 268 273 288 290 284 284 290 290 287 286 281 280 283 291 295 297 297 298 299 296 294 292 295 303 307 305 306 306 301 303 305 306 305 304 302 303 304 302 297 296 296 298 298 297 297 299 300 304
nan 239 230 231 nan nan nan nan nan nan nan nan 257 nan nan nan nan nan 253 254 255 nan 261 262 264 264 266 279 282 279 278 279 281 279 282 282 281 277 273 274 285 289 289 282 282 288 289 290 285 284 286 288 284 295 297 296 295 293 293 298 299 301 301 301 300 298 301 305 305 305 300 300 296 295 nan nan 297 nan nan nan nan nan nan nan nan nan nan
222 226 234 231 246 247 nan nan nan nan 255 256 258 nan nan nan nan nan nan 255 256 257 261 265 270 272 271 273 278 283 282 283 285 287 288 295 302 288 279 283 291 293 286 283 286 284 283 285 283 278 273 276 283 nan 287 291 293 296 294 295 298 300 301 301 301 302 303 303 300 300 302 301 298 nan nan nan nan nan nan nan nan nan nan nan nan nan nan
249 nan 242 244 251 258 nan nan nan nan 255 254 nan nan nan nan nan nan nan nan 260 260 263 267 270 273 276 274 276 280 284 285 287 290 292 291 287 281 279 282 282 280 283 286 284 280 279 281 278 274 277 283 285 287 285 286 289 290 293 294 295 298 300 301 298 303 305 303 301 301 300 299 300 299 nan nan nan nan nan nan nan nan nan nan nan nan nan
nan nan nan nan nan 252 nan nan nan nan 260 nan nan nan nan nan nan nan nan nan nan 264 267 270 269 271 274 280 281 282 285 288 286 288 288 285 282 279 279 283 286 285 283 283 283 282 281 280 277 277 283 287 287 286 287 287 287 289 292 293 297 297 296 294 295 295 297 298 299 299 298 297 296 298 297 293 289 282 284 nan nan nan nan nan nan nan nan
nan nan nan nan nan nan nan nan nan nan nan nan nan nan nan nan nan nan nan nan nan nan 268 271 274 273 274 279 284 285 288 291 292 291 288 287 286 284 284 286 284 280 277 278 278 279 279 279 279 282 283 284 285 282 285 288 289 290 293 296 298 298 296 295 296 298 299 296 296 296 295 295 296 294 295 295 293 291 286 nan nan nan nan nan nan nan nan
nan nan nan nan nan nan nan nan nan nan nan nan nan nan nan nan nan nan nan nan nan nan nan nan 276 283 283 280 280 280 284 290 291 288 288 288 288 286 287 286 280 276 279 281 281 278 278 279 282 284 284 284 284 285 285 287 290 291 293 295 297 297 297 297 298 300 301 298 296 297 296 292 290 293 296 294 294 295 295 nan nan nan nan nan nan nan nan
nan nan nan nan nan nan nan nan nan nan nan nan nan nan nan nan nan nan nan nan nan nan nan nan 280 276 280 283 284 288 290 288 286 289 286 286 287 288 289 287 282 279 282 281 278 275 276 278 280 283 284 284 285 286 288 289 291 292 294 296 297 299 299 298 297 298 299 299 299 296 294 295 296 295 291 291 291 295 299 299 nan nan nan nan nan nan nan
nan nan nan nan nan nan nan nan nan nan nan nan nan nan nan nan nan nan nan nan nan nan nan nan nan 284 287 286 286 287 288 285 285 288 287 288 290 nan 291 290 287 284 280 277 274 273 279 283 285 287 286 286 287 288 291 292 292 292 294 296 298 298 298 299 299 299 296 293 294 295 291 291 291 289 289 290 292 295 295 295 296 nan nan nan nan nan nan
nan nan nan nan nan nan nan nan nan nan nan nan nan nan nan nan nan nan nan nan nan nan nan nan nan 284 285 285 286 287 288 288 291 292 290 288 289 nan 284 289 286 282 276 276 276 279 284 287 287 287 290 290 291 292 293 294 295 295 296 298 297 295 293 292 293 291 289 290 291 290 292 293 291 293 294 294 294 293 293 295 296 298 nan nan nan nan nan
nan nan nan nan nan nan nan nan nan nan nan nan nan nan nan nan nan nan nan nan nan nan nan nan 265 265 270 277 281 283 285 288 288 286 284 284 283 280 287 287 284 275 273 274 280 286 290 290 290 292 294 296 297 296 296 294 294 294 294 295 291 290 291 293 294 292 291 292 294 294 292 293 293 293 294 293 292 294 nan nan nan nan nan nan nan nan nan
nan nan nan nan nan nan nan nan nan nan nan nan nan nan nan nan nan nan nan nan nan nan nan nan 266 277 278 275 276 282 284 283 281 278 279 275 271 271 274 276 279 273 272 277 284 289 289 289 292 294 293 293 290 290 290 291 292 294 293 291 291 289 287 286 292 293 295 298 297 295 295 294 297 298 297 nan nan nan nan nan nan nan nan nan nan nan nan
nan nan nan nan nan nan nan nan nan nan nan nan nan nan nan nan nan nan nan nan nan nan nan nan 258 266 277 278 278 279 275 272 272 270 270 274 277 282 291 288 274 269 276 283 287 287 286 287 291 291 290 288 290 291 292 292 295 294 293 294 293 291 290 290 294 296 297 296 296 294 294 297 298 299 nan nan nan nan nan nan nan nan nan nan nan nan nan
nan nan nan nan nan nan nan nan nan nan nan nan nan nan nan nan nan nan nan nan nan nan nan nan 263 263 275 276 274 273 273 273 271 270 273 275 274 278 284 279 261 262 275 283 283 284 287 290 292 290 287 285 286 286 288 291 293 293 295 295 294 293 292 292 290 294 295 296 296 296 297 298 298 nan nan nan nan nan nan nan nan nan nan nan nan nan nan
nan nan nan nan nan nan nan nan nan nan nan nan nan nan nan nan nan nan nan nan nan nan nan 259 259 260 268 269 273 275 276 275 274 274 276 276 276 278 276 265 261 267 278 282 284 286 286 285 286 286 285 288 287 288 289 287 285 290 292 293 293 293 293 291 291 287 286 287 287 289 292 nan nan nan nan nan nan nan 295 nan nan nan nan nan nan nan nan
nan nan nan nan nan nan nan nan nan nan nan nan nan nan nan nan nan nan nan nan nan nan 264 nan 265 270 274 273 273 273 275 275 277 278 279 282 285 286 282 274 270 275 281 281 281 285 289 286 282 285 289 284 285 286 286 285 287 288 288 288 291 291 288 287 288 290 291 292 293 295 nan nan nan nan 295 nan nan nan nan nan nan nan nan nan nan nan nan
nan nan nan nan nan nan nan nan nan nan nan nan nan nan nan nan nan nan nan nan nan nan nan nan 267 268 273 274 274 274 273 272 272 273 274 275 275 276 279 278 278 281 283 284 285 287 284 279 277 271 278 286 288 285 284 287 287 288 289 291 290 289 288 287 287 288 289 nan nan nan nan nan nan nan nan nan nan nan nan nan nan nan nan nan nan nan nan
nan nan nan nan nan nan nan nan nan nan nan nan nan nan nan nan nan nan nan nan nan nan nan nan 265 270 277 279 278 277 275 277 277 276 277 277 279 277 276 279 282 285 286 285 282 281 281 280 279 280 284 289 287 284 282 282 290 289 291 291 290 288 290 nan nan nan nan nan nan nan nan nan nan nan nan nan nan nan nan nan nan nan nan nan nan nan nan
nan nan nan nan nan nan nan nan nan nan nan nan nan nan nan nan nan nan nan nan nan nan 267 nan 272 271 267 271 276 280 281 281 281 279 279 277 274 276 278 278 279 281 284 283 284 283 282 282 nan 287 288 285 283 285 286 282 283 288 289 290 288 287 nan 288 nan nan nan nan nan nan nan nan nan nan nan nan nan nan nan nan nan nan nan nan nan nan nan
nan nan nan nan nan nan nan nan nan nan nan nan nan nan nan nan nan nan nan nan nan 272 274 276 276 276 277 280 282 281 279 279 279 278 276 275 276 276 278 279 278 278 282 285 284 nan nan nan 287 287 281 283 287 nan nan nan nan nan 289 287 nan nan nan nan nan nan nan nan nan nan nan nan nan nan nan nan nan nan nan nan nan nan nan nan nan nan nan
nan nan nan nan nan nan nan nan nan nan nan nan nan nan nan nan nan nan 262 266 271 272 277 278 278 279 281 279 278 278 278 279 279 280 280 279 279 280 277 277 280 282 282 nan nan nan nan nan 290 nan 287 nan nan nan nan nan nan nan nan nan nan nan nan nan nan nan nan nan nan nan nan nan nan nan nan nan nan nan nan nan nan nan nan nan nan nan nan
nan nan nan nan nan nan nan nan nan nan nan nan nan nan nan 259 260 265 273 272 272 275 274 274 276 277 280 279 276 275 280 278 278 278 277 277 278 278 282 284 284 285 287 nan nan nan nan 285 nan nan nan nan nan nan nan nan nan nan nan nan nan nan nan nan nan nan nan nan nan nan nan nan nan nan nan nan nan nan nan nan nan nan nan nan nan nan nan
nan nan nan nan nan nan nan nan nan nan nan nan nan nan 258 256 259 260 257 268 271 268 266 269 272 273 273 274 276 274 274 278 279 280 282 284 287 287 284 282 281 279 280 282 283 nan nan nan nan nan nan nan nan nan nan nan nan nan nan nan nan nan nan nan nan nan nan nan nan nan nan nan nan nan nan nan nan nan nan nan nan nan nan nan nan nan nan
nan nan nan nan nan nan nan nan nan nan nan nan 263 262 261 261 261 258 252 258 262 267 268 269 271 274 277 279 280 280 280 282 282 282 282 279 281 280 282 282 282 285 nan nan nan nan nan nan nan nan nan nan nan nan nan nan nan nan nan nan nan nan nan nan nan nan nan nan nan nan nan nan nan nan nan nan nan nan nan nan nan nan nan nan nan nan nan
nan nan nan nan nan nan nan nan 273 269 266 265 262 263 262 256 254 nan 252 249 253 262 267 270 275 277 279 279 280 279 279 280 282 283 283 284 281 282 287 288 290 nan nan nan nan nan nan nan nan nan nan nan nan nan nan nan nan nan nan nan nan nan nan nan nan nan nan nan nan nan nan nan nan nan nan nan nan nan nan nan nan nan nan nan nan nan nan
nan nan nan nan nan nan nan 288 280 271 262 257 254 248 245 238 234 nan nan 244 249 259 268 272 272 275 277 278 278 280 280 282 282 284 287 288 288 288 288 291 292 nan nan nan nan nan nan nan nan nan nan nan nan nan nan nan nan nan nan nan nan nan nan nan nan nan nan nan nan nan nan nan nan nan nan nan nan nan nan nan nan nan nan nan nan nan nan
nan nan nan 293 nan nan nan 313 302 293 280 nan 236 233 223 215 221 nan nan 234 258 271 273 270 271 272 273 277 278 278 281 282 282 285 285 289 290 291 nan nan nan nan nan nan nan nan nan nan nan nan nan nan nan nan nan nan nan nan nan nan nan nan nan nan nan nan nan nan nan nan nan nan nan nan nan nan nan nan nan nan nan nan nan nan nan nan nan
nan nan 330 332 340 330 315 316 315 313 nan 297 260 239 229 230 239 247 259 259 250 240 249 261 266 265 269 274 274 278 283 284 287 291 293 287 288 nan nan nan nan nan nan nan nan nan nan nan nan nan nan nan nan nan nan nan nan nan nan nan nan nan nan nan nan nan nan nan nan nan nan nan nan nan nan nan nan nan nan nan nan nan nan nan nan nan nan
nan nan 317 335 357 8 16 21 17 7 324 274 252 239 240 246 256 270 277 275 277 279 274 270 272 274 268 271 284 285 281 286 289 293 nan nan nan nan nan nan nan nan nan nan nan nan nan nan nan nan nan nan nan nan nan nan nan nan nan nan nan nan nan nan nan nan nan nan nan nan nan nan nan nan nan nan nan nan nan nan nan nan nan nan nan nan nan
300 319 338 341 nan 328 93 78 122 190 205 202 227 245 242 250 261 267 276 279 278 280 275 273 278 289 293 298 290 291 295 293 292 294 nan nan nan nan nan nan nan nan nan nan nan nan nan nan nan nan nan nan nan nan nan nan nan nan nan nan nan nan nan nan nan nan nan nan nan nan nan nan nan nan nan nan nan nan nan nan nan nan nan nan nan nan nan
330 353 0 0 13 19 35 26 308 333 70 264 271 270 270 273 268 272 275 280 283 282 282 287 294 299 303 301 295 297 296 298 296 299 nan nan nan nan nan nan nan nan nan nan nan nan nan nan nan nan nan nan nan nan nan nan nan nan nan nan nan nan nan nan nan nan nan nan nan nan nan nan nan nan nan nan nan nan nan nan nan nan nan nan nan nan nan
332 340 345 358 354 345 320 307 311 322 326 294 297 309 301 294 290 287 292 296 287 289 302 306 308 306 306 305 303 304 nan 303 nan 304 303 nan nan nan nan nan nan nan nan nan nan nan nan nan nan nan nan nan nan nan nan nan nan nan nan nan nan nan nan nan nan nan nan nan nan nan nan nan nan nan nan nan nan nan nan nan nan nan nan nan nan nan nan
341 338 348 359 334 315 304 299 300 309 312 314 314 312 302 299 295 nan 308 314 310 310 nan nan nan nan nan nan nan 303 304 304 nan nan nan nan nan nan nan nan nan nan nan nan nan nan nan nan nan nan nan nan nan nan nan nan nan nan nan nan nan nan nan nan nan nan nan nan nan nan nan nan nan nan nan nan nan nan nan nan nan nan nan nan nan nan nan